Torna al catalogo

FENGYUN 1C DEB

AttivoPO
NORAD 30859·DEBRIS·🇨🇳 China

Lanciato May 10, 1999 da Taiyuan Satellite Launch Center

Loading…

Prossimi Passaggi (prossime 24 ore)

TLE

AggiornatoSource: Space-Track

Epoca: Sep 14, 2026, 10:01 UTC

1 30859U 99025AWV 26257.41791095  .00006434  00000-0  15216-2 0  9992
2 30859  98.9154 329.4467 0027006 273.0436  86.7668 14.54264317 10322

Traccia FENGYUN 1C DEB in tempo reale con AllMySat

Download on the App Store